This is the latest recevied weather packets stored in our database for station/object BG5HLN-13. If no packets are shown the sender has not sent any weather packets the latest 10 day(s).
| Time | Temp. | Humidity | Pressure | Rain* | Wind** | Luminosity | Snow |
|---|---|---|---|---|---|---|---|
| 1777719561 | 22.78° C | 80% | 1004.6 hPa | 0 mm | - | - | - |
| 1777718961 | 22.78° C | 80% | 1004.5 hPa | 0 mm | - | - | - |
| 1777718361 | 22.78° C | 78% | 1004.4 hPa | 0 mm | - | - | - |
| 1777717760 | 22.78° C | 78% | 1004.3 hPa | 0 mm | - | - | - |
| 1777717160 | 22.78° C | 79% | 1004.3 hPa | 0 mm | - | - | - |
| 1777716560 | 23.33° C | 79% | 1004.2 hPa | 0 mm | - | - | - |
| 1777715960 | 23.33° C | 78% | 1004.2 hPa | 0 mm | - | - | - |
| 1777715361 | 23.33° C | 79% | 1004 hPa | 0 mm | - | - | - |
| 1777714760 | 23.33° C | 81% | 1004.1 hPa | 0 mm | - | - | - |
| 1777714160 | 23.33° C | 81% | 1004 hPa | 0 mm | - | - | - |
| 1777713559 | 23.33° C | 81% | 1003.9 hPa | 0 mm | - | - | - |
| 1777712960 | 23.33° C | 81% | 1003.9 hPa | 0 mm | - | - | - |
| 1777712360 | 23.33° C | 79% | 1003.9 hPa | 0 mm | - | - | - |
| 1777711760 | 23.89° C | 81% | 1003.9 hPa | 0 mm | - | - | - |
| 1777711161 | 23.89° C | 82% | 1003.8 hPa | 0 mm | - | - | - |
| 1777710560 | 23.89° C | 81% | 1003.9 hPa | 0 mm | - | - | - |
| 1777709960 | 23.89° C | 79% | 1004 hPa | 0.25 mm | - | - | - |
| 1777709360 | 23.89° C | 79% | 1003.8 hPa | 0.25 mm | - | - | - |
| 1777708760 | 23.89° C | 81% | 1003.9 hPa | 0.25 mm | - | - | - |
| 1777708159 | 23.89° C | 80% | 1004.2 hPa | 0.25 mm | - | - | - |
| 1777707560 | 23.89° C | 77% | 1004.4 hPa | 0.25 mm | - | - | - |
| 1777706960 | 23.89° C | 75% | 1004.4 hPa | 0.25 mm | - | - | - |
| 1777706359 | 24.44° C | 76% | 1004.5 hPa | 0 mm | - | - | - |
| 1777705759 | 24.44° C | 72% | 1004.8 hPa | 0 mm | - | - | - |
| 1777705159 | 24.44° C | 72% | 1004.8 hPa | 0 mm | - | - | - |
* Rain latest hour (hover to see other rain measurements)
** Current wind speed in m/s (hover to see current wind gust speed)